contact:dominique.lefevre@mio.osupytheas.fr, maurice.libes@osupytheas.fr, didier.mallarino@osupytheas.fr
Project:EMSO http://www.emso-fr.org/EMSO-France
Depth: 2436.0 m
Title:EMSO Ligure Ouest : Data MII capteur CSTAR
DateTime,Latitude,Longitude,Instrument_Serial,Reference_Counts,Signal_Counts,Corrected_Signal_raw_counts,Calculated_Beam_c_inverse_meters,Internal_thermistor_counts
DateTime,Latitude,Longitude,Instrument_Serial,Reference_Counts,Signal_Counts,Corrected_Signal_raw_counts,Calculated_Beam_c_inverse_meters,Internal_thermistor_counts
2023-01-19T00:01:03,42.805,6.029,CST-1368DR,4412,4904,11813,01.116,551
2023-01-19T00:04:05,42.805,6.029,CST-1368DR,4412,4904,11813,01.116,551
2023-01-19T00:07:06,42.805,6.029,CST-1368DR,4412,4904,11812,01.117,551
2023-01-19T00:10:08,42.805,6.029,CST-1368DR,4412,4902,11808,01.118,551
2023-01-19T00:13:09,42.805,6.029,CST-1368DR,4412,4903,11811,01.117,551
2023-01-19T00:16:11,42.805,6.029,CST-1368DR,4412,4905,11815,01.116,551
2023-01-19T00:19:13,42.805,6.029,CST-1368DR,4412,4904,11812,01.117,551
2023-01-19T00:22:14,42.805,6.029,CST-1368DR,4412,4904,11813,01.116,551
2023-01-19T00:25:16,42.805,6.029,CST-1368DR,4412,4904,11814,01.116,551
2023-01-19T00:28:17,42.805,6.029,CST-1368DR,4412,4904,11814,01.116,551
2023-01-19T00:31:19,42.805,6.029,CST-1368DR,4412,4905,11815,01.116,551
2023-01-19T00:34:21,42.805,6.029,CST-1368DR,4412,4905,11815,01.116,551
2023-01-19T00:37:22,42.805,6.029,CST-1368DR,4412,4904,11813,01.116,551
2023-01-19T00:40:24,42.805,6.029,CST-1368DR,4412,4904,11813,01.116,551
2023-01-19T00:43:25,42.805,6.029,CST-1368DR,4412,4904,11813,01.116,551
2023-01-19T00:46:27,42.805,6.029,CST-1368DR,4412,4904,11813,01.116,551
2023-01-19T00:49:28,42.805,6.029,CST-1368DR,4412,4904,11814,01.116,551
2023-01-19T00:52:30,42.805,6.029,CST-1368DR,4412,4905,11815,01.116,551
2023-01-19T00:55:32,42.805,6.029,CST-1368DR,4412,4905,11815,01.116,551
2023-01-19T00:58:33,42.805,6.029,CST-1368DR,4412,4905,11815,01.116,551
2023-01-19T01:01:35,42.805,6.029,CST-1368DR,4412,4903,11811,01.117,551
2023-01-19T01:04:36,42.805,6.029,CST-1368DR,4412,4904,11813,01.116,551
2023-01-19T01:07:38,42.805,6.029,CST-1368DR,4412,4904,11813,01.116,551
2023-01-19T01:10:40,42.805,6.029,CST-1368DR,4412,4905,11815,01.116,551
2023-01-19T01:13:41,42.805,6.029,CST-1368DR,4412,4904,11813,01.116,551
2023-01-19T01:16:43,42.805,6.029,CST-1368DR,4412,4904,11812,01.117,551
2023-01-19T01:19:44,42.805,6.029,CST-1368DR,4412,4905,11815,01.116,551
2023-01-19T01:22:46,42.805,6.029,CST-1368DR,4412,4904,11813,01.116,551
2023-01-19T01:25:47,42.805,6.029,CST-1368DR,4412,4904,11814,01.116,551
2023-01-19T01:28:49,42.805,6.029,CST-1368DR,4412,4904,11814,01.116,551
2023-01-19T01:31:51,42.805,6.029,CST-1368DR,4412,4904,11813,01.116,551
2023-01-19T01:34:52,42.805,6.029,CST-1368DR,4412,4904,11813,01.116,551
2023-01-19T01:37:54,42.805,6.029,CST-1368DR,4412,4905,11815,01.116,551
2023-01-19T01:40:55,42.805,6.029,CST-1368DR,4412,4904,11814,01.116,551
2023-01-19T01:43:57,42.805,6.029,CST-1368DR,4412,4904,11812,01.117,551
2023-01-19T01:46:59,42.805,6.029,CST-1368DR,4412,4903,11811,01.117,551
2023-01-19T01:50:00,42.805,6.029,CST-1368DR,4412,4903,11810,01.117,551
2023-01-19T01:53:02,42.805,6.029,CST-1368DR,4412,4904,11814,01.116,551
2023-01-19T01:56:03,42.805,6.029,CST-1368DR,4412,4903,11811,01.117,551
2023-01-19T01:59:05,42.805,6.029,CST-1368DR,4412,4905,11815,01.116,551
2023-01-19T02:02:06,42.805,6.029,CST-1368DR,4412,4902,11809,01.118,551
2023-01-19T02:05:08,42.805,6.029,CST-1368DR,4412,4904,11812,01.117,551
2023-01-19T02:08:10,42.805,6.029,CST-1368DR,4412,4903,11810,01.117,551
2023-01-19T02:11:11,42.805,6.029,CST-1368DR,4412,4903,11811,01.117,551
2023-01-19T02:14:13,42.805,6.029,CST-1368DR,4412,4904,11814,01.116,551
2023-01-19T02:17:14,42.805,6.029,CST-1368DR,4412,4904,11812,01.117,551
2023-01-19T02:20:16,42.805,6.029,CST-1368DR,4412,4904,11814,01.116,551
2023-01-19T02:23:18,42.805,6.029,CST-1368DR,4412,4905,11815,01.116,551
2023-01-19T02:26:19,42.805,6.029,CST-1368DR,4412,4904,11813,01.116,551
2023-01-19T02:29:21,42.805,6.029,CST-1368DR,4412,4903,11810,01.117,551
2023-01-19T02:32:22,42.805,6.029,CST-1368DR,4412,4904,11813,01.116,551
2023-01-19T02:35:24,42.805,6.029,CST-1368DR,4412,4904,11813,01.116,551
2023-01-19T02:38:26,42.805,6.029,CST-1368DR,4412,4905,11815,01.116,551
2023-01-19T02:41:27,42.805,6.029,CST-1368DR,4412,4904,11814,01.116,551
2023-01-19T02:44:29,42.805,6.029,CST-1368DR,4412,4904,11813,01.116,551
2023-01-19T02:47:30,42.805,6.029,CST-1368DR,4412,4903,11810,01.117,551
2023-01-19T02:50:32,42.805,6.029,CST-1368DR,4412,4904,11812,01.117,551
2023-01-19T02:53:33,42.805,6.029,CST-1368DR,4412,4904,11813,01.116,551
2023-01-19T02:56:35,42.805,6.029,CST-1368DR,4412,4905,11816,01.115,551
2023-01-19T02:59:37,42.805,6.029,CST-1368DR,4412,4905,11816,01.115,551
2023-01-19T03:02:38,42.805,6.029,CST-1368DR,4412,4905,11815,01.116,551
2023-01-19T03:05:40,42.805,6.029,CST-1368DR,4412,4904,11813,01.116,551
2023-01-19T03:08:41,42.805,6.029,CST-1368DR,4412,4902,11809,01.118,551
2023-01-19T03:11:43,42.805,6.029,CST-1368DR,4412,4904,11813,01.116,551
2023-01-19T03:14:45,42.805,6.029,CST-1368DR,4412,4904,11814,01.116,551
2023-01-19T03:17:46,42.805,6.029,CST-1368DR,4412,4905,11815,01.116,551
2023-01-19T03:20:48,42.805,6.029,CST-1368DR,4412,4905,11815,01.116,551
2023-01-19T03:23:49,42.805,6.029,CST-1368DR,4412,4905,11815,01.116,551
2023-01-19T03:26:51,42.805,6.029,CST-1368DR,4412,4905,11815,01.116,551
2023-01-19T03:29:52,42.805,6.029,CST-1368DR,4412,4905,11815,01.116,551
2023-01-19T03:32:54,42.805,6.029,CST-1368DR,4412,4905,11816,01.115,551
2023-01-19T03:35:56,42.805,6.029,CST-1368DR,4412,4905,11815,01.116,551
2023-01-19T03:38:57,42.805,6.029,CST-1368DR,4412,4905,11816,01.115,551
2023-01-19T03:41:59,42.805,6.029,CST-1368DR,4412,4905,11815,01.116,551
2023-01-19T03:45:00,42.805,6.029,CST-1368DR,4412,4905,11815,01.116,551
2023-01-19T03:48:02,42.805,6.029,CST-1368DR,4412,4905,11816,01.115,551
2023-01-19T03:51:04,42.805,6.029,CST-1368DR,4412,4905,11815,01.116,551
2023-01-19T03:54:05,42.805,6.029,CST-1368DR,4412,4905,11815,01.116,551
2023-01-19T03:57:07,42.805,6.029,CST-1368DR,4412,4904,11813,01.116,551
2023-01-19T04:00:08,42.805,6.029,CST-1368DR,4412,4904,11814,01.116,551
2023-01-19T04:03:10,42.805,6.029,CST-1368DR,4412,4905,11815,01.116,551
2023-01-19T04:06:12,42.805,6.029,CST-1368DR,4412,4905,11815,01.116,551
2023-01-19T04:09:13,42.805,6.029,CST-1368DR,4412,4905,11815,01.116,551
2023-01-19T04:12:15,42.805,6.029,CST-1368DR,4412,4904,11814,01.116,551
2023-01-19T04:15:16,42.805,6.029,CST-1368DR,4412,4905,11815,01.116,551
2023-01-19T04:18:18,42.805,6.029,CST-1368DR,4412,4902,11809,01.118,551
2023-01-19T04:21:19,42.805,6.029,CST-1368DR,4412,4904,11814,01.116,551
2023-01-19T04:24:21,42.805,6.029,CST-1368DR,4411,4904,11815,01.116,551
2023-01-19T04:27:23,42.805,6.029,CST-1368DR,4411,4904,11816,01.115,551
2023-01-19T04:30:24,42.805,6.029,CST-1368DR,4411,4905,11818,01.115,551
2023-01-19T04:33:26,42.805,6.029,CST-1368DR,4411,4903,11812,01.117,551
2023-01-19T04:36:27,42.805,6.029,CST-1368DR,4411,4904,11816,01.115,551
2023-01-19T04:39:29,42.805,6.029,CST-1368DR,4412,4904,11813,01.116,551
2023-01-19T04:42:31,42.805,6.029,CST-1368DR,4412,4904,11814,01.116,551
2023-01-19T04:45:32,42.805,6.029,CST-1368DR,4412,4904,11814,01.116,551
2023-01-19T04:48:34,42.805,6.029,CST-1368DR,4412,4903,11811,01.117,551
2023-01-19T04:51:35,42.805,6.029,CST-1368DR,4412,4904,11812,01.117,551
2023-01-19T04:54:37,42.805,6.029,CST-1368DR,4412,4904,11813,01.116,551
2023-01-19T04:57:38,42.805,6.029,CST-1368DR,4412,4904,11814,01.116,551
2023-01-19T05:00:40,42.805,6.029,CST-1368DR,4411,4905,11818,01.115,551
2023-01-19T05:03:42,42.805,6.029,CST-1368DR,4412,4904,11812,01.117,551
2023-01-19T05:06:43,42.805,6.029,CST-1368DR,4411,4904,11816,01.115,551
2023-01-19T05:09:45,42.805,6.029,CST-1368DR,4411,4905,11818,01.115,551
2023-01-19T05:12:46,42.805,6.029,CST-1368DR,4412,4903,11810,01.117,551
2023-01-19T05:15:48,42.805,6.029,CST-1368DR,4411,4905,11817,01.115,551
2023-01-19T05:18:50,42.805,6.029,CST-1368DR,4411,4904,11816,01.115,551
2023-01-19T05:21:51,42.805,6.029,CST-1368DR,4412,4905,11815,01.116,551
2023-01-19T05:24:53,42.805,6.029,CST-1368DR,4411,4904,11816,01.115,551
2023-01-19T05:27:54,42.805,6.029,CST-1368DR,4411,4904,11816,01.115,551
2023-01-19T05:30:56,42.805,6.029,CST-1368DR,4411,4903,11813,01.116,551
2023-01-19T05:33:58,42.805,6.029,CST-1368DR,4411,4904,11815,01.116,551
2023-01-19T05:36:59,42.805,6.029,CST-1368DR,4411,4904,11816,01.115,551
2023-01-19T05:40:01,42.805,6.029,CST-1368DR,4412,4904,11812,01.117,551
2023-01-19T05:43:02,42.805,6.029,CST-1368DR,4411,4904,11815,01.116,551
2023-01-19T05:46:04,42.805,6.029,CST-1368DR,4411,4903,11812,01.117,551
2023-01-19T05:49:05,42.805,6.029,CST-1368DR,4411,4903,11813,01.116,551
2023-01-19T05:52:07,42.805,6.029,CST-1368DR,4411,4902,11810,01.117,551
2023-01-19T05:55:09,42.805,6.029,CST-1368DR,4411,4902,11811,01.117,551
2023-01-19T05:58:10,42.805,6.029,CST-1368DR,4411,4904,11816,01.115,551
2023-01-19T06:01:12,42.805,6.029,CST-1368DR,4411,4904,11816,01.115,551
2023-01-19T06:04:13,42.805,6.029,CST-1368DR,4411,4903,11812,01.117,551
2023-01-19T06:07:15,42.805,6.029,CST-1368DR,4411,4904,11815,01.116,551
2023-01-19T06:10:17,42.805,6.029,CST-1368DR,4411,4904,11816,01.115,551
2023-01-19T06:13:18,42.805,6.029,CST-1368DR,4411,4904,11816,01.115,551
2023-01-19T06:16:20,42.805,6.029,CST-1368DR,4411,4904,11816,01.115,551
2023-01-19T06:19:21,42.805,6.029,CST-1368DR,4411,4904,11816,01.115,551
2023-01-19T06:22:23,42.805,6.029,CST-1368DR,4411,4906,11819,01.114,551
2023-01-19T06:25:24,42.805,6.029,CST-1368DR,4411,4905,11817,01.115,551
2023-01-19T06:28:26,42.805,6.029,CST-1368DR,4411,4904,11816,01.115,551
2023-01-19T06:31:28,42.805,6.029,CST-1368DR,4411,4904,11815,01.116,551
2023-01-19T06:34:29,42.805,6.029,CST-1368DR,4411,4905,11817,01.115,551
2023-01-19T06:37:31,42.805,6.029,CST-1368DR,4411,4904,11816,01.115,551
2023-01-19T06:40:32,42.805,6.029,CST-1368DR,4411,4905,11817,01.115,551
2023-01-19T06:43:34,42.805,6.029,CST-1368DR,4411,4905,11818,01.115,551
2023-01-19T06:46:36,42.805,6.029,CST-1368DR,4411,4903,11812,01.117,551
2023-01-19T06:49:37,42.805,6.029,CST-1368DR,4411,4904,11815,01.116,551
2023-01-19T06:52:39,42.805,6.029,CST-1368DR,4411,4904,11815,01.116,551
2023-01-19T06:55:40,42.805,6.029,CST-1368DR,4411,4903,11813,01.116,551
2023-01-19T06:58:42,42.805,6.029,CST-1368DR,4411,4904,11816,01.115,551
2023-01-19T07:01:44,42.805,6.029,CST-1368DR,4411,4902,11812,01.117,551
2023-01-19T07:04:45,42.805,6.029,CST-1368DR,4411,4903,11813,01.116,551
2023-01-19T07:07:47,42.805,6.029,CST-1368DR,4411,4903,11813,01.116,551
2023-01-19T07:10:48,42.805,6.029,CST-1368DR,4411,4904,11816,01.115,551
2023-01-19T07:13:50,42.805,6.029,CST-1368DR,4411,4904,11815,01.116,551
2023-01-19T07:16:51,42.805,6.029,CST-1368DR,4411,4903,11812,01.117,551
2023-01-19T07:19:53,42.805,6.029,CST-1368DR,4411,4903,11812,01.117,551
2023-01-19T07:22:55,42.805,6.029,CST-1368DR,4411,4902,11810,01.117,551
2023-01-19T07:25:56,42.805,6.029,CST-1368DR,4411,4901,11809,01.118,551
2023-01-19T07:28:58,42.805,6.029,CST-1368DR,4411,4903,11813,01.116,551
2023-01-19T07:31:59,42.805,6.029,CST-1368DR,4411,4903,11812,01.117,551
2023-01-19T07:35:01,42.805,6.029,CST-1368DR,4411,4902,11812,01.117,551
2023-01-19T07:38:03,42.805,6.029,CST-1368DR,4411,4902,11811,01.117,551
2023-01-19T07:41:04,42.805,6.029,CST-1368DR,4411,4903,11813,01.116,551
2023-01-19T07:44:06,42.805,6.029,CST-1368DR,4411,4904,11815,01.116,551
2023-01-19T07:47:07,42.805,6.029,CST-1368DR,4411,4901,11808,01.118,551
2023-01-19T07:50:09,42.805,6.029,CST-1368DR,4411,4903,11812,01.117,551
2023-01-19T07:53:10,42.805,6.029,CST-1368DR,4411,4904,11816,01.115,551
2023-01-19T07:56:12,42.805,6.029,CST-1368DR,4411,4903,11813,01.116,551
2023-01-19T07:59:14,42.805,6.029,CST-1368DR,4411,4904,11815,01.116,551
2023-01-19T08:02:15,42.805,6.029,CST-1368DR,4411,4904,11815,01.116,551
2023-01-19T08:05:17,42.805,6.029,CST-1368DR,4411,4904,11816,01.115,551
2023-01-19T08:08:18,42.805,6.029,CST-1368DR,4411,4904,11815,01.116,551
2023-01-19T08:11:20,42.805,6.029,CST-1368DR,4411,4905,11819,01.114,551
2023-01-19T08:14:22,42.805,6.029,CST-1368DR,4411,4903,11813,01.116,551
2023-01-19T08:17:23,42.805,6.029,CST-1368DR,4411,4905,11817,01.115,551
2023-01-19T08:20:25,42.805,6.029,CST-1368DR,4411,4902,11810,01.117,551
2023-01-19T08:23:26,42.805,6.029,CST-1368DR,4411,4904,11815,01.116,551
2023-01-19T08:26:28,42.805,6.029,CST-1368DR,4411,4902,11810,01.117,551
2023-01-19T08:29:30,42.805,6.029,CST-1368DR,4411,4903,11813,01.116,551
2023-01-19T08:32:31,42.805,6.029,CST-1368DR,4412,4905,11815,01.116,551
2023-01-19T08:35:33,42.805,6.029,CST-1368DR,4411,4904,11816,01.115,551
2023-01-19T08:38:34,42.805,6.029,CST-1368DR,4411,4904,11816,01.115,551
2023-01-19T08:41:36,42.805,6.029,CST-1368DR,4411,4904,11816,01.115,551
2023-01-19T08:44:37,42.805,6.029,CST-1368DR,4411,4902,11810,01.117,551
2023-01-19T08:47:39,42.805,6.029,CST-1368DR,4411,4903,11813,01.116,551
2023-01-19T08:50:41,42.805,6.029,CST-1368DR,4411,4902,11812,01.117,551
2023-01-19T08:53:42,42.805,6.029,CST-1368DR,4411,4904,11815,01.116,551
2023-01-19T08:56:44,42.805,6.029,CST-1368DR,4411,4904,11815,01.116,551
2023-01-19T08:59:45,42.805,6.029,CST-1368DR,4412,4903,11810,01.117,551
2023-01-19T09:02:47,42.805,6.029,CST-1368DR,4411,4903,11813,01.116,551
2023-01-19T09:05:49,42.805,6.029,CST-1368DR,4412,4903,11810,01.117,551
2023-01-19T09:08:50,42.805,6.029,CST-1368DR,4411,4904,11815,01.116,551
2023-01-19T09:11:52,42.805,6.029,CST-1368DR,4411,4903,11812,01.117,551
2023-01-19T09:14:53,42.805,6.029,CST-1368DR,4412,4902,11809,01.118,551
2023-01-19T09:17:55,42.805,6.029,CST-1368DR,4411,4903,11813,01.116,551
2023-01-19T09:20:56,42.805,6.029,CST-1368DR,4412,4904,11813,01.116,551
2023-01-19T09:23:58,42.805,6.029,CST-1368DR,4411,4903,11813,01.116,551
2023-01-19T09:27:00,42.805,6.029,CST-1368DR,4411,4902,11812,01.117,551
2023-01-19T09:30:01,42.805,6.029,CST-1368DR,4411,4904,11815,01.116,551
2023-01-19T09:33:03,42.805,6.029,CST-1368DR,4411,4902,11810,01.117,551
2023-01-19T09:36:04,42.805,6.029,CST-1368DR,4411,4902,11810,01.117,551
2023-01-19T09:39:06,42.805,6.029,CST-1368DR,4411,4899,11804,01.119,551
2023-01-19T09:42:08,42.805,6.029,CST-1368DR,4411,4902,11811,01.117,551
2023-01-19T09:45:09,42.805,6.029,CST-1368DR,4411,4903,11813,01.116,551
2023-01-19T09:48:11,42.805,6.029,CST-1368DR,4411,4903,11812,01.117,551
2023-01-19T09:51:12,42.805,6.029,CST-1368DR,4411,4901,11809,01.118,551
2023-01-19T09:54:14,42.805,6.029,CST-1368DR,4411,4900,11806,01.119,551
2023-01-19T09:57:15,42.805,6.029,CST-1368DR,4411,4903,11812,01.117,551
2023-01-19T10:00:17,42.805,6.029,CST-1368DR,4411,4902,11811,01.117,551
2023-01-19T10:03:19,42.805,6.029,CST-1368DR,4411,4902,11812,01.117,551
2023-01-19T10:06:20,42.805,6.029,CST-1368DR,4411,4902,11810,01.117,551
2023-01-19T10:09:22,42.805,6.029,CST-1368DR,4411,4903,11812,01.117,551
2023-01-19T10:12:23,42.805,6.029,CST-1368DR,4411,4902,11810,01.117,551
2023-01-19T10:15:25,42.805,6.029,CST-1368DR,4411,4903,11813,01.116,551
2023-01-19T10:18:27,42.805,6.029,CST-1368DR,4412,4903,11810,01.117,551
2023-01-19T10:21:28,42.805,6.029,CST-1368DR,4411,4903,11812,01.117,551
2023-01-19T10:24:30,42.805,6.029,CST-1368DR,4411,4903,11812,01.117,551
2023-01-19T10:27:31,42.805,6.029,CST-1368DR,4412,4901,11805,01.119,551
2023-01-19T10:30:33,42.805,6.029,CST-1368DR,4411,4903,11813,01.116,551
2023-01-19T10:33:35,42.805,6.029,CST-1368DR,4411,4903,11813,01.116,551
2023-01-19T10:36:36,42.805,6.029,CST-1368DR,4411,4902,11811,01.117,551
2023-01-19T10:39:38,42.805,6.029,CST-1368DR,4411,4899,11804,01.119,551
2023-01-19T10:42:39,42.805,6.029,CST-1368DR,4411,4902,11810,01.117,551
2023-01-19T10:45:41,42.805,6.029,CST-1368DR,4411,4901,11808,01.118,551
2023-01-19T10:48:42,42.805,6.029,CST-1368DR,4411,4902,11810,01.117,551
2023-01-19T10:51:44,42.805,6.029,CST-1368DR,4411,4901,11807,01.118,551
2023-01-19T10:54:46,42.805,6.029,CST-1368DR,4411,4901,11809,01.118,551
2023-01-19T10:57:47,42.805,6.029,CST-1368DR,4411,4902,11810,01.117,551
2023-01-19T11:00:49,42.805,6.029,CST-1368DR,4411,4900,11807,01.118,551
2023-01-19T11:03:50,42.805,6.029,CST-1368DR,4411,4902,11810,01.117,551
2023-01-19T11:06:52,42.805,6.029,CST-1368DR,4411,4902,11810,01.117,551
2023-01-19T11:09:54,42.805,6.029,CST-1368DR,4411,4902,11810,01.117,551
2023-01-19T11:12:55,42.805,6.029,CST-1368DR,4411,4902,11810,01.117,551
2023-01-19T11:15:57,42.805,6.029,CST-1368DR,4411,4903,11813,01.116,551
2023-01-19T11:18:58,42.805,6.029,CST-1368DR,4411,4902,11811,01.117,551
2023-01-19T11:22:00,42.805,6.029,CST-1368DR,4411,4901,11809,01.118,551
2023-01-19T11:25:01,42.805,6.029,CST-1368DR,4411,4901,11809,01.118,550
2023-01-19T11:28:03,42.805,6.029,CST-1368DR,4411,4903,11813,01.116,551
2023-01-19T11:31:05,42.805,6.029,CST-1368DR,4411,4902,11810,01.117,551
2023-01-19T11:34:06,42.805,6.029,CST-1368DR,4411,4903,11812,01.117,551
2023-01-19T11:37:08,42.805,6.029,CST-1368DR,4411,4901,11809,01.118,551
2023-01-19T11:40:09,42.805,6.029,CST-1368DR,4411,4902,11810,01.117,551
2023-01-19T11:43:11,42.805,6.029,CST-1368DR,4411,4902,11810,01.117,551
2023-01-19T11:46:13,42.805,6.029,CST-1368DR,4411,4902,11810,01.117,551
2023-01-19T11:49:14,42.805,6.029,CST-1368DR,4411,4902,11810,01.117,551
2023-01-19T11:52:16,42.805,6.029,CST-1368DR,4411,4903,11813,01.116,551
2023-01-19T11:55:17,42.805,6.029,CST-1368DR,4411,4903,11813,01.116,551
2023-01-19T11:58:19,42.805,6.029,CST-1368DR,4411,4904,11815,01.116,551
2023-01-19T12:01:21,42.805,6.029,CST-1368DR,4411,4903,11812,01.117,551
2023-01-19T12:04:22,42.805,6.029,CST-1368DR,4411,4904,11816,01.115,551
2023-01-19T12:07:24,42.805,6.029,CST-1368DR,4411,4904,11816,01.115,551
2023-01-19T12:10:25,42.805,6.029,CST-1368DR,4411,4903,11813,01.116,551
2023-01-19T12:13:27,42.805,6.029,CST-1368DR,4411,4902,11810,01.117,551
2023-01-19T12:16:28,42.805,6.029,CST-1368DR,4411,4904,11815,01.116,551
2023-01-19T12:19:30,42.805,6.029,CST-1368DR,4411,4904,11815,01.116,551
2023-01-19T12:22:32,42.805,6.029,CST-1368DR,4411,4903,11813,01.116,551
2023-01-19T12:25:33,42.805,6.029,CST-1368DR,4411,4901,11807,01.118,551
2023-01-19T12:28:35,42.805,6.029,CST-1368DR,4411,4903,11813,01.116,551
2023-01-19T12:31:36,42.805,6.029,CST-1368DR,4411,4903,11813,01.116,551
2023-01-19T12:34:38,42.805,6.029,CST-1368DR,4411,4904,11815,01.116,551
2023-01-19T12:37:40,42.805,6.029,CST-1368DR,4411,4902,11810,01.117,551
2023-01-19T12:40:41,42.805,6.029,CST-1368DR,4411,4903,11813,01.116,551
2023-01-19T12:43:43,42.805,6.029,CST-1368DR,4411,4904,11815,01.116,551
2023-01-19T12:46:44,42.805,6.029,CST-1368DR,4411,4902,11810,01.117,551
2023-01-19T12:49:46,42.805,6.029,CST-1368DR,4411,4902,11810,01.117,551
2023-01-19T12:52:47,42.805,6.029,CST-1368DR,4411,4903,11813,01.116,551
2023-01-19T12:55:49,42.805,6.029,CST-1368DR,4411,4903,11813,01.116,551
2023-01-19T12:58:51,42.805,6.029,CST-1368DR,4411,4902,11810,01.117,551
2023-01-19T13:01:52,42.805,6.029,CST-1368DR,4411,4903,11813,01.116,551
2023-01-19T13:04:54,42.805,6.029,CST-1368DR,4411,4904,11815,01.116,551
2023-01-19T13:07:55,42.805,6.029,CST-1368DR,4411,4902,11811,01.117,551
2023-01-19T13:10:57,42.805,6.029,CST-1368DR,4411,4902,11810,01.117,551
2023-01-19T13:13:59,42.805,6.029,CST-1368DR,4411,4903,11813,01.116,551
2023-01-19T13:17:00,42.805,6.029,CST-1368DR,4411,4903,11813,01.116,551
2023-01-19T13:20:02,42.805,6.029,CST-1368DR,4411,4902,11811,01.117,551
2023-01-19T13:23:03,42.805,6.029,CST-1368DR,4411,4902,11812,01.117,551
2023-01-19T13:26:05,42.805,6.029,CST-1368DR,4411,4903,11813,01.116,551
2023-01-19T13:29:06,42.805,6.029,CST-1368DR,4411,4900,11806,01.119,551
2023-01-19T13:32:08,42.805,6.029,CST-1368DR,4411,4902,11810,01.117,551
2023-01-19T13:35:10,42.805,6.029,CST-1368DR,4411,4902,11810,01.117,551
2023-01-19T13:38:11,42.805,6.029,CST-1368DR,4411,4901,11808,01.118,551
2023-01-19T13:41:13,42.805,6.029,CST-1368DR,4411,4903,11813,01.116,551
2023-01-19T13:44:14,42.805,6.029,CST-1368DR,4411,4903,11812,01.117,551
2023-01-19T13:47:16,42.805,6.029,CST-1368DR,4411,4902,11811,01.117,551
2023-01-19T13:50:18,42.805,6.029,CST-1368DR,4411,4902,11810,01.117,551
2023-01-19T13:53:19,42.805,6.029,CST-1368DR,4411,4902,11811,01.117,551
2023-01-19T13:56:21,42.805,6.029,CST-1368DR,4411,4903,11813,01.116,551
2023-01-19T13:59:22,42.805,6.029,CST-1368DR,4411,4902,11812,01.117,551
2023-01-19T14:02:24,42.805,6.029,CST-1368DR,4411,4902,11810,01.117,551
2023-01-19T14:05:26,42.805,6.029,CST-1368DR,4411,4904,11816,01.115,551
2023-01-19T14:08:27,42.805,6.029,CST-1368DR,4411,4904,11816,01.115,551
2023-01-19T14:11:29,42.805,6.029,CST-1368DR,4411,4904,11815,01.116,551
2023-01-19T14:14:30,42.805,6.029,CST-1368DR,4411,4901,11809,01.118,551
2023-01-19T14:17:32,42.805,6.029,CST-1368DR,4411,4904,11816,01.115,551
2023-01-19T14:20:33,42.805,6.029,CST-1368DR,4411,4904,11815,01.116,551
2023-01-19T14:23:35,42.805,6.029,CST-1368DR,4411,4904,11815,01.116,551
2023-01-19T14:26:37,42.805,6.029,CST-1368DR,4411,4904,11816,01.115,551
2023-01-19T14:29:38,42.805,6.029,CST-1368DR,4411,4903,11813,01.116,551
2023-01-19T14:32:40,42.805,6.029,CST-1368DR,4411,4903,11812,01.117,551
2023-01-19T14:35:41,42.805,6.029,CST-1368DR,4411,4903,11812,01.117,551
2023-01-19T14:38:43,42.805,6.029,CST-1368DR,4411,4902,11810,01.117,551
2023-01-19T14:41:45,42.805,6.029,CST-1368DR,4411,4903,11813,01.116,551
2023-01-19T14:44:46,42.805,6.029,CST-1368DR,4411,4905,11818,01.115,551
2023-01-19T14:47:48,42.805,6.029,CST-1368DR,4411,4905,11817,01.115,551
2023-01-19T14:50:49,42.805,6.029,CST-1368DR,4411,4898,11801,01.120,551
2023-01-19T14:53:51,42.805,6.029,CST-1368DR,4411,4903,11813,01.116,551
2023-01-19T14:56:52,42.805,6.029,CST-1368DR,4411,4904,11815,01.116,551
2023-01-19T14:59:54,42.805,6.029,CST-1368DR,4411,4904,11816,01.115,551
2023-01-19T15:02:56,42.805,6.029,CST-1368DR,4411,4902,11811,01.117,551
2023-01-19T15:05:57,42.805,6.029,CST-1368DR,4411,4903,11812,01.117,551
2023-01-19T15:08:59,42.805,6.029,CST-1368DR,4411,4904,11815,01.116,551
2023-01-19T15:12:00,42.805,6.029,CST-1368DR,4411,4902,11810,01.117,551
2023-01-19T15:15:02,42.805,6.029,CST-1368DR,4411,4901,11809,01.118,551
2023-01-19T15:18:04,42.805,6.029,CST-1368DR,4411,4901,11807,01.118,551
2023-01-19T15:21:05,42.805,6.029,CST-1368DR,4411,4902,11811,01.117,551
2023-01-19T15:24:07,42.805,6.029,CST-1368DR,4411,4902,11811,01.117,551
2023-01-19T15:27:08,42.805,6.029,CST-1368DR,4411,4899,11804,01.119,551
2023-01-19T15:30:10,42.805,6.029,CST-1368DR,4411,4901,11808,01.118,551
2023-01-19T15:33:11,42.805,6.029,CST-1368DR,4411,4901,11809,01.118,551
2023-01-19T15:36:13,42.805,6.029,CST-1368DR,4411,4900,11807,01.118,551
2023-01-19T15:39:15,42.805,6.029,CST-1368DR,4411,4900,11806,01.119,551
2023-01-19T15:42:16,42.805,6.029,CST-1368DR,4411,4901,11807,01.118,551
2023-01-19T15:45:18,42.805,6.029,CST-1368DR,4411,4901,11807,01.118,551
2023-01-19T15:48:19,42.805,6.029,CST-1368DR,4411,4900,11805,01.119,551
2023-01-19T15:51:21,42.805,6.029,CST-1368DR,4411,4899,11804,01.119,551
2023-01-19T15:54:23,42.805,6.029,CST-1368DR,4411,4900,11807,01.118,551
2023-01-19T15:57:24,42.805,6.029,CST-1368DR,4411,4901,11807,01.118,551
2023-01-19T16:00:26,42.805,6.029,CST-1368DR,4411,4899,11803,01.120,551
2023-01-19T16:03:27,42.805,6.029,CST-1368DR,4411,4899,11804,01.119,551
2023-01-19T16:06:29,42.805,6.029,CST-1368DR,4411,4900,11805,01.119,551
2023-01-19T16:09:31,42.805,6.029,CST-1368DR,4411,4900,11806,01.119,551
2023-01-19T16:12:32,42.805,6.029,CST-1368DR,4411,4899,11804,01.119,551
2023-01-19T16:15:34,42.805,6.029,CST-1368DR,4411,4900,11807,01.118,551
2023-01-19T16:18:35,42.805,6.029,CST-1368DR,4411,4901,11807,01.118,551
2023-01-19T16:21:37,42.805,6.029,CST-1368DR,4411,4901,11809,01.118,551
2023-01-19T16:24:38,42.805,6.029,CST-1368DR,4411,4899,11803,01.120,551
2023-01-19T16:27:40,42.805,6.029,CST-1368DR,4411,4899,11804,01.119,551
2023-01-19T16:30:42,42.805,6.029,CST-1368DR,4411,4900,11805,01.119,551
2023-01-19T16:33:43,42.805,6.029,CST-1368DR,4411,4900,11806,01.119,551
2023-01-19T16:36:45,42.805,6.029,CST-1368DR,4411,4898,11801,01.120,551